Year,Month,Day,Hour,Minute,Value (Times are PST for temperature in C)
2012,07,14,00,00,15.00
2012,07,14,00,01,15.00
2012,07,14,00,02,15.00
2012,07,14,00,03,15.00
2012,07,14,00,04,15.00
2012,07,14,00,05,15.00
2012,07,14,00,06,15.00
2012,07,14,00,07,15.00
2012,07,14,00,08,15.10
2012,07,14,00,09,15.20
2012,07,14,00,10,15.20
2012,07,14,00,11,15.20
2012,07,14,00,12,15.20
2012,07,14,00,13,15.20
2012,07,14,00,14,15.20
2012,07,14,00,15,15.20
2012,07,14,00,16,15.20
2012,07,14,00,17,15.20
2012,07,14,00,18,15.20
2012,07,14,00,19,15.20
2012,07,14,00,20,15.20
2012,07,14,00,21,15.20
2012,07,14,00,22,15.20
2012,07,14,00,23,15.20
2012,07,14,00,24,15.20
2012,07,14,00,25,15.20
2012,07,14,00,26,15.10
2012,07,14,00,27,15.10
2012,07,14,00,28,15.10
2012,07,14,00,29,15.10
2012,07,14,00,30,15.10
2012,07,14,00,31,15.10
2012,07,14,00,32,15.00
2012,07,14,00,33,15.00
2012,07,14,00,34,15.00
2012,07,14,00,35,15.00
2012,07,14,00,36,15.00
2012,07,14,00,37,15.00
2012,07,14,00,38,15.00
2012,07,14,00,39,15.00
2012,07,14,00,40,15.00
2012,07,14,00,41,15.00
2012,07,14,00,42,15.00
2012,07,14,00,43,15.00
2012,07,14,00,44,15.00
2012,07,14,00,45,15.00
2012,07,14,00,46,15.00
2012,07,14,00,47,15.00
2012,07,14,00,48,15.00
2012,07,14,00,49,15.00
2012,07,14,00,50,15.00
2012,07,14,00,51,15.00
2012,07,14,00,52,15.00
2012,07,14,00,53,15.00
2012,07,14,00,54,15.00
2012,07,14,00,55,15.00
2012,07,14,00,56,14.90
2012,07,14,00,57,14.90
2012,07,14,00,58,14.90
2012,07,14,00,59,14.90
2012,07,14,01,00,14.90
2012,07,14,01,01,14.90
2012,07,14,01,02,14.90
2012,07,14,01,03,14.80
2012,07,14,01,04,14.80
2012,07,14,01,05,14.80
2012,07,14,01,06,14.80
2012,07,14,01,07,14.80
2012,07,14,01,08,14.80
2012,07,14,01,09,14.80
2012,07,14,01,10,14.80
2012,07,14,01,11,14.70
2012,07,14,01,12,14.70
2012,07,14,01,13,14.70
2012,07,14,01,14,14.70
2012,07,14,01,15,14.70
2012,07,14,01,16,14.70
2012,07,14,01,17,14.70
2012,07,14,01,18,14.60
2012,07,14,01,19,14.60
2012,07,14,01,20,14.60
2012,07,14,01,21,14.60
2012,07,14,01,22,14.60
2012,07,14,01,23,14.60
2012,07,14,01,24,14.60
2012,07,14,01,25,14.60
2012,07,14,01,26,14.60
2012,07,14,01,27,14.60
2012,07,14,01,28,14.60
2012,07,14,01,29,14.60
2012,07,14,01,30,14.60
2012,07,14,01,31,14.60
2012,07,14,01,32,14.60
2012,07,14,01,33,14.60
2012,07,14,01,34,14.60
2012,07,14,01,35,14.60
2012,07,14,01,36,14.60
2012,07,14,01,37,14.60
2012,07,14,01,38,14.60
2012,07,14,01,39,14.60
2012,07,14,01,40,14.60
2012,07,14,01,41,14.60
2012,07,14,01,42,14.60
2012,07,14,01,43,14.60
2012,07,14,01,44,14.60
2012,07,14,01,45,14.60
2012,07,14,01,46,14.60
2012,07,14,01,47,14.60
2012,07,14,01,48,14.50
2012,07,14,01,49,14.60
2012,07,14,01,50,14.60
2012,07,14,01,51,14.60
2012,07,14,01,52,14.60
2012,07,14,01,53,14.60
2012,07,14,01,54,14.60
2012,07,14,01,55,14.60
2012,07,14,01,56,14.60
2012,07,14,01,57,14.60
2012,07,14,01,58,14.60
2012,07,14,05,04,14.10
2012,07,14,05,05,14.10
2012,07,14,05,06,14.10
2012,07,14,05,07,14.10
2012,07,14,05,08,14.10
2012,07,14,05,09,14.00
2012,07,14,05,10,14.00
2012,07,14,05,11,14.00
2012,07,14,05,12,14.00
2012,07,14,05,13,14.00
2012,07,14,05,14,14.00
2012,07,14,05,15,14.00
2012,07,14,05,16,14.00
2012,07,14,05,17,14.00
2012,07,14,05,18,14.00
2012,07,14,05,19,14.00
2012,07,14,05,20,14.00
2012,07,14,05,21,14.00
2012,07,14,05,22,14.00
2012,07,14,05,23,14.00
2012,07,14,05,24,14.00
2012,07,14,05,25,13.90
2012,07,14,05,26,13.90
2012,07,14,05,27,13.90
2012,07,14,05,28,13.90
2012,07,14,05,29,13.90
2012,07,14,05,30,13.90
2012,07,14,05,31,13.90
2012,07,14,05,32,13.90
2012,07,14,05,33,13.90
2012,07,14,05,34,13.90
2012,07,14,05,35,13.90
2012,07,14,05,36,13.90
2012,07,14,05,37,13.90
2012,07,14,05,38,13.90
2012,07,14,05,39,14.00
2012,07,14,05,40,14.00
2012,07,14,05,41,14.00
2012,07,14,05,42,14.00
2012,07,14,05,43,14.10
2012,07,14,05,44,14.10
2012,07,14,05,45,14.10
2012,07,14,05,46,14.10
2012,07,14,05,47,14.10
2012,07,14,05,48,14.10
2012,07,14,05,49,14.10
2012,07,14,05,50,14.10
2012,07,14,05,51,14.10
2012,07,14,05,52,14.10
2012,07,14,05,53,14.10
2012,07,14,05,54,14.10
2012,07,14,05,55,14.10
2012,07,14,05,56,14.10
2012,07,14,05,57,14.10
2012,07,14,05,58,14.10
2012,07,14,05,59,14.10
2012,07,14,06,00,14.10
2012,07,14,06,01,14.10
2012,07,14,06,02,14.10
2012,07,14,06,03,14.20
2012,07,14,06,04,14.20
2012,07,14,06,05,14.20
2012,07,14,06,06,14.20
2012,07,14,06,07,14.20
2012,07,14,06,08,14.20
2012,07,14,06,09,14.20
2012,07,14,06,10,14.20
2012,07,14,06,11,14.20
2012,07,14,06,12,14.20
2012,07,14,06,13,14.20
2012,07,14,06,14,14.20
2012,07,14,06,15,14.20
2012,07,14,06,16,14.30
2012,07,14,06,17,14.30
2012,07,14,06,18,14.30
2012,07,14,06,19,14.30
2012,07,14,06,20,14.30
2012,07,14,06,21,14.20
2012,07,14,06,22,14.20
2012,07,14,06,23,14.20
2012,07,14,06,24,14.20
2012,07,14,06,25,14.20
2012,07,14,06,26,14.20
2012,07,14,06,27,14.10
2012,07,14,06,28,14.10
2012,07,14,06,29,14.10
2012,07,14,06,30,14.10
2012,07,14,06,31,14.10
2012,07,14,06,32,14.10
2012,07,14,06,33,14.10
2012,07,14,06,34,14.00
2012,07,14,06,35,14.00
2012,07,14,06,36,14.00
2012,07,14,06,37,14.00
2012,07,14,06,38,14.00
2012,07,14,06,39,14.00
2012,07,14,06,40,14.10
2012,07,14,06,41,14.10
2012,07,14,06,42,14.10
2012,07,14,06,43,14.10
2012,07,14,06,44,14.10
2012,07,14,06,45,14.10
2012,07,14,06,46,14.10
2012,07,14,06,47,14.10
2012,07,14,06,48,14.10
2012,07,14,06,49,14.10
2012,07,14,06,50,14.20
2012,07,14,06,51,14.20
2012,07,14,06,52,14.20
2012,07,14,06,53,14.20
2012,07,14,06,54,14.30
2012,07,14,06,55,14.30
2012,07,14,06,56,14.30
2012,07,14,06,57,14.30
2012,07,14,06,58,14.30
2012,07,14,06,59,14.30
2012,07,14,07,00,14.30
2012,07,14,07,01,14.30
2012,07,14,07,02,14.40
2012,07,14,07,03,14.40
2012,07,14,07,04,14.40
2012,07,14,07,05,14.50
2012,07,14,07,06,14.60
2012,07,14,07,07,14.60
2012,07,14,07,08,14.70
2012,07,14,07,09,14.70
2012,07,14,07,10,14.80
2012,07,14,07,11,14.80
2012,07,14,07,12,14.80
2012,07,14,07,13,14.90
2012,07,14,07,14,14.90
2012,07,14,07,15,15.00
2012,07,14,07,16,15.00
2012,07,14,07,17,15.00
2012,07,14,07,18,15.00
2012,07,14,07,19,15.00
2012,07,14,07,20,15.00
2012,07,14,07,21,15.00
2012,07,14,07,22,15.00
2012,07,14,07,23,15.10
2012,07,14,07,24,15.20
2012,07,14,07,25,15.30
2012,07,14,07,26,15.40
2012,07,14,07,27,15.50
2012,07,14,07,28,15.60
2012,07,14,07,29,15.70
2012,07,14,07,30,15.80
2012,07,14,07,31,15.90
2012,07,14,07,32,16.10
2012,07,14,07,33,16.20
2012,07,14,07,34,16.30
2012,07,14,07,35,16.30
2012,07,14,07,36,16.40
2012,07,14,07,37,16.40
2012,07,14,07,38,16.40
2012,07,14,07,39,16.40
2012,07,14,07,40,16.50
2012,07,14,07,41,16.50
2012,07,14,07,42,16.40
2012,07,14,07,43,16.50
2012,07,14,07,44,16.50
2012,07,14,07,45,16.50
2012,07,14,07,46,16.60
2012,07,14,07,47,16.60
2012,07,14,07,48,16.70
2012,07,14,07,49,16.70
2012,07,14,07,50,16.70
2012,07,14,07,51,16.70
2012,07,14,07,52,16.70
2012,07,14,07,53,16.70
2012,07,14,07,54,16.70
2012,07,14,07,55,16.80
2012,07,14,07,56,16.80
2012,07,14,07,57,16.70
2012,07,14,07,58,16.70
2012,07,14,07,59,16.70
2012,07,14,08,00,16.70
2012,07,14,08,01,16.70
2012,07,14,08,02,16.70
2012,07,14,08,03,16.60
2012,07,14,08,04,16.60
2012,07,14,08,05,16.50
2012,07,14,08,06,16.50
2012,07,14,08,07,16.40
2012,07,14,08,08,16.30
2012,07,14,08,09,16.30
2012,07,14,08,10,16.40
2012,07,14,08,11,16.40
2012,07,14,08,12,16.50
2012,07,14,08,13,16.50
2012,07,14,08,14,16.60
2012,07,14,08,15,16.60
2012,07,14,08,16,16.60
2012,07,14,08,17,16.70
2012,07,14,08,18,16.70
2012,07,14,08,19,16.80
2012,07,14,08,20,16.80
2012,07,14,08,21,16.90
2012,07,14,08,22,17.00
2012,07,14,08,23,17.10
2012,07,14,08,24,17.20
2012,07,14,08,25,17.30
2012,07,14,08,26,17.40
2012,07,14,08,27,17.40
2012,07,14,08,28,17.50
2012,07,14,08,29,17.70
2012,07,14,08,30,17.80
2012,07,14,08,31,18.00
2012,07,14,08,32,18.10
2012,07,14,08,33,18.20
2012,07,14,08,34,18.30
2012,07,14,08,35,18.50
2012,07,14,08,36,18.60
2012,07,14,08,37,18.70
2012,07,14,08,38,18.80
2012,07,14,08,39,18.90
2012,07,14,08,40,19.10
2012,07,14,08,41,19.20
2012,07,14,08,42,19.20
2012,07,14,08,43,19.30
2012,07,14,08,44,19.30
2012,07,14,08,45,19.40
2012,07,14,08,46,19.50
2012,07,14,08,47,19.60
2012,07,14,08,48,19.60
2012,07,14,08,49,19.70
2012,07,14,08,50,19.80
2012,07,14,08,51,19.90
2012,07,14,08,52,19.90
2012,07,14,08,53,20.00
2012,07,14,08,54,20.10
2012,07,14,08,55,20.10
2012,07,14,08,56,20.20
2012,07,14,08,57,20.30
2012,07,14,08,58,20.40
2012,07,14,08,59,20.40
2012,07,14,09,00,20.50
2012,07,14,09,01,20.60
2012,07,14,09,02,20.70
2012,07,14,09,03,20.80
2012,07,14,09,04,21.00
2012,07,14,09,05,21.10
2012,07,14,09,06,21.20
2012,07,14,09,07,21.30
2012,07,14,09,08,21.40
2012,07,14,09,09,21.40
2012,07,14,09,10,21.40
2012,07,14,09,11,21.30
2012,07,14,09,12,21.30
2012,07,14,09,13,21.30
2012,07,14,09,14,21.30
2012,07,14,09,15,21.40
2012,07,14,09,16,21.40
2012,07,14,09,17,21.40
2012,07,14,09,18,21.40
2012,07,14,09,19,21.50
2012,07,14,09,20,21.50
2012,07,14,09,21,21.50
2012,07,14,09,22,21.40
2012,07,14,09,23,21.40
2012,07,14,09,24,21.50
2012,07,14,09,25,21.60
2012,07,14,09,26,21.60
2012,07,14,09,27,21.70
2012,07,14,09,28,21.80
2012,07,14,09,29,21.80
2012,07,14,09,30,21.90
2012,07,14,09,31,21.90
2012,07,14,09,32,21.90
2012,07,14,09,33,22.00
2012,07,14,09,34,22.10
2012,07,14,09,35,22.10
2012,07,14,09,36,22.20
2012,07,14,09,37,22.30
2012,07,14,09,38,22.30
2012,07,14,09,39,22.40
2012,07,14,09,40,22.40
2012,07,14,09,41,22.40
2012,07,14,09,42,22.40
2012,07,14,09,43,22.40
2012,07,14,09,44,22.30
2012,07,14,09,45,22.30
2012,07,14,09,46,22.20
2012,07,14,09,47,22.20
2012,07,14,09,48,22.20
2012,07,14,09,49,22.20
2012,07,14,09,50,22.30
2012,07,14,09,51,22.30
2012,07,14,09,52,22.40
2012,07,14,09,53,22.60
2012,07,14,09,54,22.70
2012,07,14,09,55,22.80
2012,07,14,09,56,22.80
2012,07,14,09,57,22.90
2012,07,14,09,58,22.90
2012,07,14,09,59,22.90
2012,07,14,10,00,22.80
2012,07,14,10,01,22.80
2012,07,14,10,02,22.80
2012,07,14,10,03,22.80
2012,07,14,10,04,22.70
2012,07,14,10,05,22.60
2012,07,14,10,06,22.60
2012,07,14,10,07,22.60
2012,07,14,10,08,22.60
2012,07,14,10,09,22.70
2012,07,14,10,10,22.80
2012,07,14,10,11,22.90
2012,07,14,10,12,23.00
2012,07,14,10,13,23.10
2012,07,14,10,14,23.20
2012,07,14,10,15,23.30
2012,07,14,10,16,23.30
2012,07,14,10,17,23.40
2012,07,14,10,18,23.50
2012,07,14,10,19,23.50
2012,07,14,10,20,23.40
2012,07,14,10,21,23.20
2012,07,14,10,22,23.20
2012,07,14,10,23,23.20
2012,07,14,10,24,23.30
2012,07,14,10,25,23.30
2012,07,14,10,26,23.40
2012,07,14,10,27,23.50
2012,07,14,10,28,23.60
2012,07,14,10,29,23.70
2012,07,14,10,30,23.80
2012,07,14,10,31,23.90
2012,07,14,10,32,23.90
2012,07,14,10,33,23.90
2012,07,14,10,34,23.90
2012,07,14,10,35,23.90
2012,07,14,10,36,23.90
2012,07,14,10,37,24.00
2012,07,14,10,38,24.10
2012,07,14,10,39,24.10
2012,07,14,10,40,24.20
2012,07,14,10,41,24.20
2012,07,14,10,42,24.30
2012,07,14,10,43,24.40
2012,07,14,10,44,24.40
2012,07,14,10,45,24.50
2012,07,14,10,46,24.50
2012,07,14,10,47,24.50
2012,07,14,10,48,24.50
2012,07,14,10,49,24.60
2012,07,14,10,50,24.60
2012,07,14,10,51,24.60
2012,07,14,10,52,24.60
2012,07,14,10,53,24.60
2012,07,14,10,54,24.60
2012,07,14,10,55,24.70
2012,07,14,10,56,24.70
2012,07,14,10,57,24.80
2012,07,14,10,58,24.90
2012,07,14,10,59,24.90
2012,07,14,11,00,25.00
2012,07,14,11,01,24.80
2012,07,14,11,02,24.60
2012,07,14,11,03,24.50
2012,07,14,11,04,24.40
2012,07,14,11,05,24.40
2012,07,14,11,06,24.30
2012,07,14,11,07,24.30
2012,07,14,11,08,24.40
2012,07,14,11,09,24.50
2012,07,14,11,10,24.40
2012,07,14,11,11,24.30
2012,07,14,11,12,24.30
2012,07,14,11,13,24.30
2012,07,14,11,14,24.40
2012,07,14,11,15,24.40
2012,07,14,11,16,24.30
2012,07,14,11,17,24.10
2012,07,14,11,18,24.00
2012,07,14,11,19,23.80
2012,07,14,11,20,23.60
2012,07,14,11,21,23.40
2012,07,14,11,22,23.30
2012,07,14,11,23,23.20
2012,07,14,11,24,23.10
2012,07,14,11,25,22.90
2012,07,14,11,26,22.80
2012,07,14,11,27,22.80
2012,07,14,11,28,22.70
2012,07,14,11,29,22.60
2012,07,14,11,30,22.50
2012,07,14,11,31,22.40
2012,07,14,11,32,22.40
2012,07,14,11,33,22.50
2012,07,14,11,34,22.60
2012,07,14,11,35,22.60
2012,07,14,11,36,22.70
2012,07,14,11,37,22.70
2012,07,14,11,38,22.70
2012,07,14,11,39,22.50
2012,07,14,11,40,22.40
2012,07,14,11,41,22.50
2012,07,14,11,42,22.60
2012,07,14,11,43,22.60
2012,07,14,11,44,22.50
2012,07,14,11,45,22.40
2012,07,14,11,46,22.30
2012,07,14,11,47,22.30
2012,07,14,11,48,22.30
2012,07,14,11,49,22.40
2012,07,14,11,50,22.40
2012,07,14,11,51,22.30
2012,07,14,11,52,22.30
2012,07,14,11,53,22.30
2012,07,14,11,54,22.30
2012,07,14,11,55,22.40
2012,07,14,11,56,22.50
2012,07,14,11,57,22.60
2012,07,14,11,58,22.60
2012,07,14,11,59,22.60
2012,07,14,12,00,22.60
2012,07,14,12,01,22.60
2012,07,14,12,02,22.60
2012,07,14,12,03,22.60
2012,07,14,12,04,22.70
2012,07,14,12,05,22.70
2012,07,14,12,06,22.70
2012,07,14,12,07,22.70
2012,07,14,12,08,22.80
2012,07,14,12,09,22.80
2012,07,14,12,10,22.90
2012,07,14,12,11,22.90
2012,07,14,12,12,22.90
2012,07,14,12,13,22.90
2012,07,14,12,14,22.90
2012,07,14,12,15,22.90
2012,07,14,12,16,22.90
2012,07,14,12,17,22.90
2012,07,14,12,18,22.80
2012,07,14,12,19,22.80
2012,07,14,12,20,22.80
2012,07,14,12,21,22.80
2012,07,14,12,22,22.90
2012,07,14,12,23,22.80
2012,07,14,12,24,22.70
2012,07,14,12,25,22.50
2012,07,14,12,26,22.50
2012,07,14,12,27,22.50
2012,07,14,12,28,22.60
2012,07,14,12,29,22.60
2012,07,14,12,30,22.50
2012,07,14,12,31,22.50
2012,07,14,12,32,22.40
2012,07,14,12,33,22.50
2012,07,14,12,34,22.50
2012,07,14,12,35,22.50
2012,07,14,12,36,22.60
2012,07,14,12,37,22.50
2012,07,14,12,38,22.50
2012,07,14,12,39,22.50
2012,07,14,12,40,22.50
2012,07,14,12,41,22.60
2012,07,14,12,42,22.50
2012,07,14,12,43,22.30
2012,07,14,12,44,22.10
2012,07,14,12,45,21.90
2012,07,14,12,46,21.80
2012,07,14,12,47,21.80
2012,07,14,12,48,21.70
2012,07,14,12,49,21.70
2012,07,14,12,50,21.70
2012,07,14,12,51,21.80
2012,07,14,12,52,21.80
2012,07,14,12,53,21.90
2012,07,14,12,54,21.80
2012,07,14,12,55,21.60
2012,07,14,12,56,21.40
2012,07,14,12,57,21.30
2012,07,14,12,58,21.20
2012,07,14,12,59,21.20
2012,07,14,13,00,21.30
2012,07,14,13,01,21.30
2012,07,14,13,02,21.40
2012,07,14,13,03,21.50
2012,07,14,13,04,21.50
2012,07,14,13,05,21.60
2012,07,14,13,06,21.70
2012,07,14,13,07,21.70
2012,07,14,13,08,21.70
2012,07,14,13,09,21.70
2012,07,14,13,10,21.60
2012,07,14,13,11,21.60
2012,07,14,13,12,21.60
2012,07,14,13,13,21.60
2012,07,14,13,14,21.50
2012,07,14,13,15,21.40
2012,07,14,13,16,21.30
2012,07,14,13,17,21.20
2012,07,14,13,18,21.10
2012,07,14,13,19,20.90
2012,07,14,13,20,20.80
2012,07,14,13,21,20.80
2012,07,14,13,22,20.80
2012,07,14,13,23,20.80
2012,07,14,13,24,20.80
2012,07,14,13,25,20.80
2012,07,14,13,26,20.80
2012,07,14,13,27,20.80
2012,07,14,13,28,20.80
2012,07,14,13,29,20.80
2012,07,14,13,30,20.80
2012,07,14,13,31,20.80
2012,07,14,13,32,20.80
2012,07,14,13,33,20.80
2012,07,14,13,34,20.80
2012,07,14,13,35,20.70
2012,07,14,13,36,20.50
2012,07,14,13,37,20.40
2012,07,14,13,38,20.20
2012,07,14,13,39,20.10
2012,07,14,13,40,19.80
2012,07,14,13,41,19.60
2012,07,14,13,42,19.30
2012,07,14,13,43,19.20
2012,07,14,13,44,19.10
2012,07,14,13,45,19.00
2012,07,14,13,46,18.90
2012,07,14,13,47,18.80
2012,07,14,13,48,18.70
2012,07,14,13,49,18.70
2012,07,14,13,50,18.80
2012,07,14,13,51,18.90
2012,07,14,13,52,19.00
2012,07,14,13,53,19.10
2012,07,14,13,54,19.20
2012,07,14,13,55,19.30
2012,07,14,13,56,19.40
2012,07,14,13,57,19.50
2012,07,14,13,58,19.50
2012,07,14,13,59,19.60
2012,07,14,14,00,19.70
2012,07,14,14,01,19.80
2012,07,14,14,02,19.80
2012,07,14,14,03,19.70
2012,07,14,14,04,19.80
2012,07,14,14,05,19.80
2012,07,14,14,06,19.80
2012,07,14,14,07,19.80
2012,07,14,14,08,19.90
2012,07,14,14,09,19.90
2012,07,14,14,10,19.90
2012,07,14,14,11,19.80
2012,07,14,14,12,19.70
2012,07,14,14,13,19.60
2012,07,14,14,14,19.60
2012,07,14,14,15,19.50
2012,07,14,14,16,19.40
2012,07,14,14,17,19.40
2012,07,14,14,18,19.50
2012,07,14,14,19,19.50
2012,07,14,14,20,19.60
2012,07,14,14,21,19.70
2012,07,14,14,22,19.70
2012,07,14,14,23,19.70
2012,07,14,14,24,19.70
2012,07,14,14,25,19.60
2012,07,14,14,26,19.60
2012,07,14,14,27,19.70
2012,07,14,14,28,19.70
2012,07,14,14,29,19.80
2012,07,14,14,30,19.80
2012,07,14,14,31,19.70
2012,07,14,14,32,19.60
2012,07,14,14,33,19.40
2012,07,14,14,34,19.30
2012,07,14,14,35,19.20
2012,07,14,14,36,19.10
2012,07,14,14,37,19.00
2012,07,14,14,38,18.90
2012,07,14,14,39,18.80
2012,07,14,14,40,18.80
2012,07,14,14,41,18.80
2012,07,14,14,42,18.90
2012,07,14,14,43,18.90
2012,07,14,14,44,18.90
2012,07,14,14,45,18.90
2012,07,14,14,46,18.90
2012,07,14,14,47,18.90
2012,07,14,14,48,19.00
2012,07,14,14,49,19.10
2012,07,14,14,50,19.30
2012,07,14,14,51,19.30
2012,07,14,14,52,19.30
2012,07,14,14,53,19.30
2012,07,14,14,54,19.30
2012,07,14,14,55,19.40
2012,07,14,14,56,19.40
2012,07,14,14,57,19.40
2012,07,14,14,58,19.30
2012,07,14,14,59,19.30
2012,07,14,15,00,19.30
2012,07,14,15,01,19.30
2012,07,14,15,02,19.40
2012,07,14,15,03,19.50
2012,07,14,15,04,19.50
2012,07,14,15,05,19.70
2012,07,14,15,06,19.90
2012,07,14,15,07,20.00
2012,07,14,15,08,20.20
2012,07,14,15,09,20.30
2012,07,14,15,10,20.40
2012,07,14,15,11,20.60
2012,07,14,15,12,20.60
2012,07,14,15,13,20.70
2012,07,14,15,14,20.60
2012,07,14,15,15,20.50
2012,07,14,15,16,20.40
2012,07,14,15,17,20.30
2012,07,14,15,18,20.20
2012,07,14,15,19,20.20
2012,07,14,15,20,20.20
2012,07,14,15,21,20.30
2012,07,14,15,22,20.30
2012,07,14,15,23,20.40
2012,07,14,15,24,20.40
2012,07,14,15,25,20.40
2012,07,14,15,26,20.40
2012,07,14,15,27,20.30
2012,07,14,15,28,20.30
2012,07,14,15,29,20.20
2012,07,14,15,30,20.20
2012,07,14,15,31,20.10
2012,07,14,15,32,20.00
2012,07,14,15,33,19.90
2012,07,14,15,34,19.80
2012,07,14,15,35,19.80
2012,07,14,15,36,19.90
2012,07,14,15,37,19.90
2012,07,14,15,38,19.90
2012,07,14,15,39,19.90
2012,07,14,15,40,20.00
2012,07,14,15,41,19.90
2012,07,14,15,42,19.90
2012,07,14,15,43,19.80
2012,07,14,15,44,19.80
2012,07,14,15,45,19.90
2012,07,14,15,46,19.90
2012,07,14,15,47,19.90
2012,07,14,15,48,19.90
2012,07,14,15,49,19.90
2012,07,14,15,50,20.00
2012,07,14,15,51,20.00
2012,07,14,15,52,20.00
2012,07,14,15,53,19.80
2012,07,14,15,54,19.60
2012,07,14,15,55,19.50
2012,07,14,15,56,19.40
2012,07,14,15,57,19.40
2012,07,14,15,58,19.30
2012,07,14,15,59,19.30
2012,07,14,16,00,19.20
2012,07,14,16,01,19.10
2012,07,14,16,02,19.10
2012,07,14,16,03,19.20
2012,07,14,16,04,19.30
2012,07,14,16,05,19.40
2012,07,14,16,06,19.60
2012,07,14,16,07,19.70
2012,07,14,16,08,19.80
2012,07,14,16,09,19.90
2012,07,14,16,10,19.90
2012,07,14,16,11,19.90
2012,07,14,16,12,19.80
2012,07,14,16,13,19.80
2012,07,14,16,14,19.80
2012,07,14,16,15,20.00
2012,07,14,16,16,20.00
2012,07,14,16,17,20.00
2012,07,14,16,18,20.10
2012,07,14,16,19,20.10
2012,07,14,16,20,20.00
2012,07,14,16,21,19.90
2012,07,14,16,22,19.90
2012,07,14,16,23,19.90
2012,07,14,16,24,19.90
2012,07,14,16,25,19.90
2012,07,14,16,26,19.80
2012,07,14,16,27,19.90
2012,07,14,16,28,19.90
2012,07,14,16,29,20.00
2012,07,14,16,30,20.10
2012,07,14,16,31,20.10
2012,07,14,16,32,20.20
2012,07,14,16,33,20.20
2012,07,14,16,34,20.20
2012,07,14,16,35,20.20
2012,07,14,16,36,20.20
2012,07,14,16,37,20.40
2012,07,14,16,38,20.40
2012,07,14,16,39,20.40
2012,07,14,16,40,20.50
2012,07,14,16,41,20.50
2012,07,14,16,42,20.60
2012,07,14,16,43,20.60
2012,07,14,16,44,20.60
2012,07,14,16,45,20.60
2012,07,14,16,46,20.60
2012,07,14,16,47,20.50
2012,07,14,16,48,20.40
2012,07,14,16,49,20.30
2012,07,14,16,50,20.10
2012,07,14,16,51,20.00
2012,07,14,16,52,19.90
2012,07,14,16,53,19.90
2012,07,14,16,54,20.00
2012,07,14,16,55,20.00
2012,07,14,16,56,20.10
2012,07,14,16,57,20.10
2012,07,14,16,58,20.00
2012,07,14,16,59,20.00
2012,07,14,17,00,20.10
2012,07,14,17,01,20.00
2012,07,14,17,02,20.00
2012,07,14,17,03,19.90
2012,07,14,17,04,19.90
2012,07,14,17,05,19.90
2012,07,14,17,06,19.80
2012,07,14,17,07,19.80
2012,07,14,17,08,19.80
2012,07,14,17,09,19.70
2012,07,14,17,10,19.60
2012,07,14,17,11,19.50
2012,07,14,17,12,19.30
2012,07,14,17,13,19.20
2012,07,14,17,14,19.10
2012,07,14,17,15,19.10
2012,07,14,17,16,19.00
2012,07,14,17,17,19.00
2012,07,14,17,18,19.00
2012,07,14,17,19,19.00
2012,07,14,17,20,18.90
2012,07,14,17,21,18.90
2012,07,14,17,22,19.00
2012,07,14,17,23,19.10
2012,07,14,17,24,19.10
2012,07,14,17,25,19.10
2012,07,14,17,26,19.20
2012,07,14,17,27,19.30
2012,07,14,17,28,19.30
2012,07,14,17,29,19.30
2012,07,14,17,30,19.30
2012,07,14,17,31,19.30
2012,07,14,17,32,19.20
2012,07,14,17,33,19.20
2012,07,14,17,34,19.10
2012,07,14,17,35,19.10
2012,07,14,17,36,19.10
2012,07,14,17,37,19.10
2012,07,14,17,38,19.00
2012,07,14,17,39,18.90
2012,07,14,17,40,18.70
2012,07,14,17,41,18.60
2012,07,14,17,42,18.60
2012,07,14,17,43,18.60
2012,07,14,17,44,18.60
2012,07,14,17,45,18.60
2012,07,14,17,46,18.60
2012,07,14,17,47,18.60
2012,07,14,17,48,18.70
2012,07,14,17,49,18.80
2012,07,14,17,50,18.80
2012,07,14,17,51,18.80
2012,07,14,17,52,18.70
2012,07,14,17,53,18.70
2012,07,14,17,54,18.60
2012,07,14,17,55,18.50
2012,07,14,17,56,18.60
2012,07,14,17,57,18.70
2012,07,14,17,58,18.80
2012,07,14,17,59,18.80
2012,07,14,18,00,18.90
2012,07,14,18,01,19.00
2012,07,14,18,02,19.00
2012,07,14,18,03,19.10
2012,07,14,18,04,19.20
2012,07,14,18,05,19.30
2012,07,14,18,06,19.30
2012,07,14,18,07,19.30
2012,07,14,18,08,19.30
2012,07,14,18,09,19.30
2012,07,14,18,10,19.30
2012,07,14,18,11,19.30
2012,07,14,18,12,19.20
2012,07,14,18,13,19.20
2012,07,14,18,14,19.20
2012,07,14,18,15,19.20
2012,07,14,18,16,19.30
2012,07,14,18,17,19.30
2012,07,14,18,18,19.40
2012,07,14,18,19,19.40
2012,07,14,18,20,19.40
2012,07,14,18,21,19.40
2012,07,14,18,22,19.40
2012,07,14,18,23,19.30
2012,07,14,18,24,19.30
2012,07,14,18,25,19.20
2012,07,14,18,26,19.20
2012,07,14,18,27,19.20
2012,07,14,18,28,19.20
2012,07,14,18,29,19.20
2012,07,14,18,30,19.20
2012,07,14,18,31,19.20
2012,07,14,18,32,19.20
2012,07,14,18,33,19.20
2012,07,14,18,34,19.20
2012,07,14,18,35,19.20
2012,07,14,18,36,19.10
2012,07,14,18,37,19.10
2012,07,14,18,38,19.00
2012,07,14,18,39,19.00
2012,07,14,18,40,19.00
2012,07,14,18,41,19.00
2012,07,14,18,42,19.00
2012,07,14,18,43,19.10
2012,07,14,18,44,19.10
2012,07,14,18,45,19.10
2012,07,14,18,46,19.10
2012,07,14,18,47,19.10
2012,07,14,18,48,19.10
2012,07,14,18,49,19.00
2012,07,14,18,50,18.90
2012,07,14,18,51,18.90
2012,07,14,18,52,18.90
2012,07,14,18,53,18.80
2012,07,14,18,54,18.80
2012,07,14,18,55,18.80
2012,07,14,18,56,18.80
2012,07,14,18,57,18.70
2012,07,14,18,58,18.70
2012,07,14,18,59,18.60
2012,07,14,19,00,18.60
2012,07,14,19,01,18.60
2012,07,14,19,02,18.60
2012,07,14,19,03,18.50
2012,07,14,19,04,18.50
2012,07,14,19,05,18.60
2012,07,14,19,06,18.60
2012,07,14,19,07,18.60
2012,07,14,19,08,18.70
2012,07,14,19,09,18.70
2012,07,14,19,10,18.80
2012,07,14,19,11,18.80
2012,07,14,19,12,18.80
2012,07,14,19,13,18.90
2012,07,14,19,14,18.90
2012,07,14,19,15,18.90
2012,07,14,19,16,18.90
2012,07,14,19,17,18.90
2012,07,14,19,18,18.90
2012,07,14,19,19,18.80
2012,07,14,19,20,18.80
2012,07,14,19,21,18.80
2012,07,14,19,22,18.70
2012,07,14,19,23,18.70
2012,07,14,19,24,18.70
2012,07,14,19,25,18.70
2012,07,14,19,26,18.70
2012,07,14,19,27,18.70
2012,07,14,19,28,18.70
2012,07,14,19,29,18.70
2012,07,14,19,30,18.70
2012,07,14,19,31,18.70
2012,07,14,19,32,18.70
2012,07,14,19,33,18.70
2012,07,14,19,34,18.70
2012,07,14,19,35,18.70
2012,07,14,19,36,18.70
2012,07,14,19,37,18.70
2012,07,14,19,38,18.80
2012,07,14,19,39,18.80
2012,07,14,19,40,18.80
2012,07,14,19,41,18.80
2012,07,14,19,42,18.80
2012,07,14,19,43,18.80
2012,07,14,19,44,18.90
2012,07,14,19,45,18.90
2012,07,14,19,46,18.90
2012,07,14,19,47,18.90
2012,07,14,19,48,18.90
2012,07,14,19,49,18.90
2012,07,14,19,50,18.90
2012,07,14,19,51,18.90
2012,07,14,19,52,18.80
2012,07,14,19,53,18.80
2012,07,14,19,54,18.80
2012,07,14,19,55,18.70
2012,07,14,19,56,18.70
2012,07,14,19,57,18.70
2012,07,14,19,58,18.70
2012,07,14,19,59,18.60
2012,07,14,20,00,18.60
2012,07,14,20,01,18.60
2012,07,14,20,02,18.60
2012,07,14,20,03,18.50
2012,07,14,20,04,18.50
2012,07,14,20,05,18.40
2012,07,14,20,06,18.40
2012,07,14,20,07,18.30
2012,07,14,20,08,18.20
2012,07,14,20,09,18.20
2012,07,14,20,10,18.10
2012,07,14,20,11,18.00
2012,07,14,20,12,17.90
2012,07,14,20,13,17.80
2012,07,14,20,14,17.70
2012,07,14,20,15,17.50
2012,07,14,20,16,17.40
2012,07,14,20,17,17.30
2012,07,14,20,18,17.30
2012,07,14,20,19,17.20
2012,07,14,20,20,17.20
2012,07,14,20,21,17.10
2012,07,14,20,22,17.10
2012,07,14,20,23,17.10
2012,07,14,20,24,17.10